EW6158 Weather Reports


time (UTC)temp
C
wind
direction
speed
KPH
gust
KPH
rain 1hr
cm
rain 24hr
cm
rain mn
cm
humidity
%
barometer
mb
20260906204544 39 224 4.8 14.5 0.00 0.00 0.00 28 1012.6
20260906203049 39 193 3.2 11.3 0.00 0.00 0.00 28 1012.9
20260906201538 38 223 3.2 8.0 0.00 0.00 0.00 30 1013.0
20260906200043 38 260 4.8 11.3 0.00 0.00 0.00 30 1013.2
20260906194535 38 126 3.2 14.5 0.00 0.00 0.00 33 1013.5
20260906193058 37 225 4.8 11.3 0.00 0.00 0.00 34 1013.7
20260906191539 38 220 6.4 16.1 0.00 0.00 0.00 33 1013.9
20260906190033 38 227 3.2 11.3 0.00 0.00 0.00 33 1014.1
20260906184537 38 249 3.2 17.7 0.00 0.00 0.00 35 1014.2
20260906183030 37 217 1.6 12.9 0.00 0.00 0.00 36 1014.3
20260906181548 38 150 1.6 6.4 0.00 0.00 0.00 37 1014.7
20260906180033 37 202 4.8 11.3 0.00 0.00 0.00 38 1014.9
20260906174523 37 211 0.0 9.7 0.00 0.00 0.00 40 1015.1
20260906173022 36 219 3.2 12.9 0.00 0.00 0.00 40 1015.3
20260906171520 36 232 3.2 12.9 0.00 0.00 0.00 40 1015.7
20260906170020 36 231 3.2 11.3 0.00 0.00 0.00 40 1015.9
20260906164518 36 221 0.0 6.4 0.00 0.00 0.00 41 1016.0
20260906163014 35 236 0.0 4.8 0.00 0.00 0.00 43 1016.2
20260906161510 34 266 0.0 9.7 0.00 0.00 0.00 46 1016.1
20260906160008 34 243 0.0 6.4 0.00 0.00 0.00 47 1016.0
20260906154510 33 179 1.6 8.0 0.00 0.00 0.00 47 1015.9
20260906153059 33 259 1.6 6.4 0.00 0.00 0.00 48 1015.8
20260906151556 32 259 0.0 6.4 0.00 0.00 0.00 51 1015.8
20260906150052 31 266 1.6 6.4 0.00 0.00 0.00 54 1015.7
20260906144605 31 181 3.2 8.0 0.00 0.00 0.00 54 1015.7
20260906143044 30 205 1.6 4.8 0.00 0.00 0.00 56 1015.7
20260906141543 29 184 0.0 4.8 0.00 0.00 0.00 59 1015.7
20260906140042 28 200 1.6 6.4 0.00 0.00 0.00 60 1015.6
20260906134539 28 209 1.6 4.8 0.00 0.00 0.00 62 1015.4
20260906133046 26 202 0.0 1.6 0.00 0.00 0.00 67 1015.4
20260906131539 26 201 0.0 0.0 0.00 0.00 0.00 68 1015.4
20260906130042 25 202 0.0 0.0 0.00 0.00 0.00 69 1015.1
20260906124539 25 202 0.0 0.0 0.00 0.00 0.00 70 1015.0
20260906123035 25 201 0.0 0.0 0.00 0.00 0.00 69 1014.8
20260906121530 25 202 0.0 0.0 0.00 0.00 0.00 69 1014.7
20260906120028 25 202 0.0 0.0 0.00 0.00 0.00 68 1014.5
20260906114542 25 202 0.0 1.6 0.00 0.00 0.00 67 1014.4
20260906113025 25 202 0.0 0.0 0.00 0.00 0.00 67 1014.3
20260906111531 25 202 0.0 0.0 0.00 0.00 0.00 67 1014.1
20260906110021 25 202 0.0 0.0 0.00 0.00 0.00 67 1014.0
20260906104528 25 201 0.0 0.0 0.00 0.00 0.00 66 1013.9
20260906103020 25 202 0.0 0.0 0.00 0.00 0.00 67 1014.0
20260906101518 25 202 0.0 0.0 0.00 0.00 0.00 67 1013.8
20260906100016 26 202 0.0 0.0 0.00 0.00 0.00 64 1013.8
20260906094533 26 202 0.0 0.0 0.00 0.00 0.00 64 1013.8
20260906093018 26 202 0.0 0.0 0.00 0.00 0.00 62 1013.6
20260906091510 27 202 0.0 0.0 0.00 0.00 0.00 61 1013.7
20260906090013 27 201 0.0 0.0 0.00 0.00 0.00 60 1013.6
20260906084506 27 201 0.0 0.0 0.00 0.00 0.00 59 1013.6
20260906083003 27 202 0.0 0.0 0.00 0.00 0.00 57 1013.5
20260906081508 27 202 0.0 0.0 0.00 0.00 0.00 57 1013.5
20260906080105 28 202 0.0 0.0 0.00 0.00 0.00 56 1013.5
20260906080004 28 202 0.0 0.0 0.00 0.00 0.00 56 1013.5
20260906074559 28 202 0.0 0.0 0.00 0.00 0.00 55 1013.4
20260906073057 28 202 0.0 3.2 0.00 0.00 0.00 55 1013.5
20260906071554 28 202 0.0 0.0 0.00 0.00 0.00 54 1013.6
20260906070053 28 201 0.0 1.6 0.00 0.00 0.00 54 1013.5
20260906064552 28 202 0.0 4.8 0.00 0.00 0.00 53 1013.5
20260906063052 29 210 1.6 4.8 0.00 0.00 0.00 53 1013.5
20260906061549 29 210 0.0 3.2 0.00 0.00 0.00 52 1013.6
20260906060047 30 209 1.6 4.8 0.00 0.00 0.00 51 1013.6
20260906054549 30 189 1.6 4.8 0.00 0.00 0.00 51 1013.5
20260906053042 30 207 1.6 6.4 0.00 0.00 0.00 50 1013.4
20260906051550 30 200 1.6 6.4 0.00 0.00 0.00 49 1013.5
20260906050036 30 203 3.2 4.8 0.00 0.00 0.00 49 1013.2
20260906044534 30 210 1.6 4.8 0.00 0.00 0.00 48 1013.2
20260906043035 31 209 1.6 6.4 0.00 0.00 0.00 47 1013.4
20260906041536 31 207 0.0 6.4 0.00 0.00 0.00 47 1013.4
20260906040034 31 195 0.0 4.8 0.00 0.00 0.00 47 1013.4
20260906034533 31 162 0.0 6.4 0.00 0.00 0.00 47 1013.4
20260906033044 31 205 0.0 3.2 0.00 0.00 0.00 46 1013.3
20260906031538 31 203 1.6 4.8 0.00 0.00 0.00 46 1013.2
20260906030033 32 206 0.0 3.2 0.00 0.00 0.00 45 1013.3
20260906024544 32 169 0.0 4.8 0.00 0.00 0.00 45 1013.2
20260906023031 32 218 0.0 3.2 0.00 0.00 0.00 44 1013.0
20260906021531 32 221 0.0 4.8 0.00 0.00 0.00 43 1012.8
20260906020031 33 206 1.6 4.8 0.00 0.00 0.00 42 1012.7
20260906014540 33 177 0.0 1.6 0.00 0.00 0.00 41 1012.6
20260906013041 33 179 0.0 3.2 0.00 0.00 0.00 40 1012.4
20260906011529 34 178 0.0 4.8 0.00 0.00 0.00 39 1012.1
20260906010029 35 207 1.6 6.4 0.00 0.00 0.00 38 1012.1
20260906004528 35 212 1.6 4.8 0.00 0.00 0.00 37 1011.9
20260906003027 35 212 1.6 6.4 0.00 0.00 0.00 36 1011.8
20260906001526 36 236 1.6 11.3 0.00 0.00 0.00 35 1011.9
20260906000026 37 217 3.2 9.7 0.00 0.00 0.00 34 1011.7
20260905234525 37 220 1.6 9.7 0.00 0.00 0.00 34 1011.7
20260905233026 37 229 4.8 12.9 0.00 0.00 0.00 34 1011.5
20260905231525 37 205 1.6 11.3 0.00 0.00 0.00 33 1011.4
20260905230024 37 224 0.0 12.9 0.00 0.00 0.00 32 1011.5
20260905224524 37 204 1.6 12.9 0.00 0.00 0.00 33 1011.5
20260905223023 37 98 0.0 9.7 0.00 0.00 0.00 32 1011.4
20260905221522 37 110 3.2 12.9 0.00 0.00 0.00 31 1011.4
20260905220019 37 78 1.6 11.3 0.00 0.00 0.00 33 1011.5
20260905214522 37 243 4.8 16.1 0.00 0.00 0.00 33 1011.8
20260905213016 37 56 0.0 11.3 0.00 0.00 0.00 33 1011.9
20260905211516 37 239 1.6 8.0 0.00 0.00 0.00 33 1012.1
20260905210013 37 217 4.8 16.1 0.00 0.00 0.00 34 1012.2